Roxboro, NC

3:21 AM EDT on May 23, 2017 (GMT -0400)
Person County

Weather History for KTDF - March, 2011

Change the Weather History Date:

Thursday, March 24, 2011

  Actual Average Record
Temperature  
Mean Temperature 56 °F -  
Max Temperature 62 °F 62 °F 82 °F (2007)
Min Temperature 50 °F 35 °F 21 °F (1992)
Degree Days  
Heating Degree Days 9    
Growing Degree Days 6 (Base 50)    
Moisture  
Dew Point 44 °F    
Average Humidity 66    
Maximum Humidity 94    
Minimum Humidity 36    
Precipitation  
Precipitation 0.11 in - - ()
Sea Level Pressure  
Sea Level Pressure 29.64 in    
Wind  
Wind Speed 4 mph (WNW)    
Max Wind Speed 14 mph    
Max Gust Speed 24 mph    
Visibility 10 miles    
Events      
Averages and records for this station are not official NWS values.
T = Trace of Precipitation, MM = Missing Value Source: NWS Daily Summary

Daily Weather History Graph

Daily Weather History Graph

Search for Another Location

Airport or City:

Trip Planner

Search our weather history database for the weather conditions in past years. The results will help you decide how hot, cold, wet, or windy it might be!

Date:

Astronomy

Mar. 24, 2011 Rise Set
Actual Time 7:14 AM EDT 7:30 PM EDT
Civil Twilight 6:48 AM EDT 7:56 PM EDT
Nautical Twilight 6:18 AM EDT 8:26 PM EDT
Astronomical Twilight 5:47 AM EDT 8:57 PM EDT
Moon 12:32 AM EDT (3/24) 10:26 AM EDT (3/24)
Length of Visible Light 13h 08m
Length of Day
12h 16m
Waning Gibbous, 69% of the Moon is Illuminated
Mar 24
Waning Gibbous
Mar 26
Last Quarter
Apr 3
New
Apr 11
First Quarter
Apr 17
Full

Hourly Weather History & Observations

Time (EDT) Temp. Dew Point Humidity Pressure Visibility Wind Dir Wind Speed Gust Speed Precip Events Conditions
12:05 AM 55.4 °F 53.6 °F 94% 29.57 in 10.0 mi West 3.5 mph - N/A   Overcast
12:26 AM 55.4 °F - N/A% 29.56 in 10.0 mi SSW 6.9 mph - 0.07 in   Overcast
12:42 AM 53.6 °F 51.8 °F 94% 29.54 in 10.0 mi South 8.1 mph - 0.10 in   Overcast
1:01 AM 53.6 °F 51.8 °F 94% 29.54 in 10.0 mi SSW 3.5 mph - 0.11 in   Overcast
1:21 AM 53.6 °F 51.8 °F 94% 29.51 in 10.0 mi Calm Calm - N/A   Overcast
1:41 AM 53.6 °F 51.8 °F 94% 29.52 in 10.0 mi Calm Calm - N/A   Mostly Cloudy
2:03 AM 53.6 °F 51.8 °F 94% 29.52 in 10.0 mi Calm Calm - N/A   Scattered Clouds
2:22 AM 53.6 °F 51.8 °F 94% 29.53 in 10.0 mi Calm Calm - N/A   Clear
2:41 AM 53.6 °F 51.8 °F 94% 29.52 in 10.0 mi Calm Calm - N/A   Clear
3:01 AM 51.8 °F 50.0 °F 94% 29.52 in 10.0 mi Calm Calm - N/A   Clear
3:22 AM 51.8 °F 50.0 °F 94% 29.53 in 10.0 mi Calm Calm - N/A   Scattered Clouds
3:41 AM 53.6 °F 51.8 °F 94% 29.54 in 10.0 mi West 5.8 mph - N/A   Mostly Cloudy
4:01 AM 53.6 °F 51.8 °F 94% 29.53 in 10.0 mi Calm Calm - N/A   Overcast
4:22 AM 53.6 °F 51.8 °F 94% 29.53 in 10.0 mi Calm Calm - N/A   Scattered Clouds
4:44 AM 53.6 °F 51.8 °F 94% 29.55 in 10.0 mi Calm Calm - N/A   Clear
5:01 AM 53.6 °F 51.8 °F 94% 29.56 in 10.0 mi Calm Calm - N/A   Clear
5:21 AM 53.6 °F 51.8 °F 94% 29.56 in 10.0 mi Calm Calm - N/A   Clear
5:41 AM 51.8 °F 50.0 °F 94% 29.56 in 10.0 mi Calm Calm - N/A   Clear
6:01 AM 51.8 °F 50.0 °F 94% 29.58 in 10.0 mi Calm Calm - N/A   Clear
6:21 AM 51.8 °F 48.2 °F 88% 29.58 in 10.0 mi Calm Calm - N/A   Clear
6:46 AM 51.8 °F 48.2 °F 88% 29.58 in 10.0 mi Calm Calm - N/A   Clear
7:01 AM 50.0 °F 48.2 °F 94% 29.59 in 10.0 mi Calm Calm - N/A   Scattered Clouds
7:22 AM 51.8 °F 48.2 °F 88% 29.59 in 10.0 mi West 4.6 mph - N/A   Mostly Cloudy
7:41 AM 51.8 °F 50.0 °F 94% 29.61 in 10.0 mi WNW 5.8 mph - N/A   Mostly Cloudy
8:01 AM 53.6 °F 48.2 °F 82% 29.62 in 10.0 mi Calm Calm - N/A   Scattered Clouds
8:21 AM 55.4 °F 46.4 °F 72% 29.62 in 10.0 mi WNW 5.8 mph - N/A   Clear
8:41 AM 55.4 °F 46.4 °F 72% 29.63 in 10.0 mi WNW 5.8 mph - N/A   Clear
9:01 AM 57.2 °F 44.6 °F 63% 29.64 in 10.0 mi WNW 4.6 mph - N/A   Clear
9:22 AM 59.0 °F 42.8 °F 55% 29.64 in - WNW 12.7 mph 20.7 mph N/A   Unknown
9:41 AM 59.0 °F 39.2 °F 48% 29.66 in 10.0 mi Calm Calm - N/A   Clear
10:01 AM 59.0 °F 39.2 °F 48% 29.66 in 10.0 mi WNW 13.8 mph 21.9 mph N/A   Clear
10:21 AM 59.0 °F 39.2 °F 48% 29.68 in 10.0 mi WNW 10.4 mph 18.4 mph N/A   Clear
10:41 AM 60.8 °F 39.2 °F 45% 29.69 in 10.0 mi WNW 8.1 mph 18.4 mph N/A   Clear
11:01 AM 60.8 °F 37.4 °F 42% 29.69 in 10.0 mi NW 11.5 mph 20.7 mph N/A   Clear
11:21 AM 60.8 °F 37.4 °F 42% 29.70 in 10.0 mi NW 10.4 mph 17.3 mph N/A   Clear
11:41 AM 60.8 °F 37.4 °F 42% 29.71 in 10.0 mi West 10.4 mph 18.4 mph N/A   Scattered Clouds
12:01 PM 62.6 °F 37.4 °F 39% 29.72 in 10.0 mi WNW 11.5 mph 17.3 mph N/A   Mostly Cloudy
12:21 PM 62.6 °F 35.6 °F 37% 29.72 in 10.0 mi NW 11.5 mph 18.4 mph N/A   Scattered Clouds
12:41 PM 62.6 °F 35.6 °F 37% 29.73 in 10.0 mi WNW 8.1 mph 23.0 mph N/A   Mostly Cloudy
1:02 PM 62.6 °F 35.6 °F 37% 29.73 in 10.0 mi NW 10.4 mph 17.3 mph N/A   Mostly Cloudy
1:21 PM 62.6 °F 35.6 °F 37% 29.74 in 10.0 mi NW 6.9 mph - N/A   Overcast
1:41 PM 62.6 °F 35.6 °F 37% 29.74 in 10.0 mi West 9.2 mph - N/A   Overcast
2:01 PM 62.6 °F 35.6 °F 37% 29.74 in 10.0 mi NW 9.2 mph 19.6 mph N/A   Overcast
2:21 PM 62.6 °F 35.6 °F 37% 29.75 in 10.0 mi NNW 11.5 mph 16.1 mph N/A   Overcast
2:41 PM 60.8 °F 35.6 °F 39% 29.75 in 10.0 mi NW 5.8 mph 17.3 mph N/A   Overcast
3:01 PM 60.8 °F 35.6 °F 39% 29.75 in 10.0 mi North 11.5 mph 16.1 mph N/A   Overcast
3:21 PM 62.6 °F 35.6 °F 37% 29.74 in 10.0 mi North 11.5 mph 24.2 mph N/A   Mostly Cloudy
3:41 PM 62.6 °F 35.6 °F 37% 29.75 in 10.0 mi NNW 9.2 mph 16.1 mph N/A   Scattered Clouds
4:01 PM 60.8 °F 35.6 °F 39% 29.76 in 10.0 mi NNW 6.9 mph 16.1 mph N/A   Scattered Clouds
4:21 PM 60.8 °F 35.6 °F 39% 29.76 in 10.0 mi NNW 10.4 mph 16.1 mph N/A   Mostly Cloudy
4:41 PM 60.8 °F 33.8 °F 36% 29.77 in 10.0 mi NNW 8.1 mph - N/A   Overcast
5:01 PM 60.8 °F 35.6 °F 39% 29.78 in 10.0 mi NNW 4.6 mph - N/A   Overcast
5:21 PM 59.0 °F 33.8 °F 39% 29.79 in 10.0 mi NNW 8.1 mph - N/A   Overcast
5:41 PM 59.0 °F 33.8 °F 39% 29.80 in 10.0 mi NNW 3.5 mph - N/A   Overcast
6:01 PM 57.2 °F 33.8 °F 41% 29.82 in 10.0 mi NNW 10.4 mph 16.1 mph N/A   Overcast
6:21 PM 57.2 °F 33.8 °F 41% 29.84 in 10.0 mi North 8.1 mph 17.3 mph N/A   Overcast
6:41 PM 55.4 °F 33.8 °F 44% 29.85 in 10.0 mi NNW 11.5 mph 16.1 mph N/A   Overcast
7:01 PM 55.4 °F 33.8 °F 44% 29.86 in 10.0 mi NNW 10.4 mph 21.9 mph N/A   Overcast
7:21 PM 53.6 °F 33.8 °F 47% 29.88 in 10.0 mi NNW 5.8 mph 17.3 mph N/A   Overcast
7:41 PM 53.6 °F 33.8 °F 47% 29.88 in 10.0 mi North 8.1 mph - N/A   Overcast
8:01 PM 53.6 °F 33.8 °F 47% 29.89 in 10.0 mi NNW 9.2 mph - N/A   Overcast
8:22 PM 51.8 °F 32.0 °F 47% 29.88 in 10.0 mi Calm Calm - N/A   Overcast
8:41 PM 51.8 °F 32.0 °F 47% 29.90 in 10.0 mi North 9.2 mph - N/A   Mostly Cloudy
9:01 PM 51.8 °F 33.8 °F 50% 29.91 in 10.0 mi North 5.8 mph - N/A   Overcast
9:21 PM 51.8 °F 32.0 °F 47% 29.92 in 10.0 mi NNW 6.9 mph - N/A   Overcast
9:41 PM 51.8 °F 32.0 °F 47% 29.92 in 10.0 mi NNW 5.8 mph - N/A   Overcast
10:01 PM 51.8 °F 32.0 °F 47% 29.94 in 10.0 mi NNW 3.5 mph - N/A   Overcast
10:21 PM 50.0 °F 30.2 °F 47% 29.95 in 10.0 mi NNW 4.6 mph - N/A   Overcast
10:41 PM 48.2 °F 30.2 °F 50% 29.95 in 10.0 mi North 4.6 mph - N/A   Overcast
11:01 PM 48.2 °F 30.2 °F 50% 29.96 in 10.0 mi NNW 9.2 mph - N/A   Overcast
11:21 PM 48.2 °F 30.2 °F 50% 29.97 in 10.0 mi North 5.8 mph - N/A   Overcast
11:43 PM 48.2 °F 30.2 °F 50% 29.98 in 10.0 mi NNW 8.1 mph - N/A   Overcast